Regional Weather Roundup
Issued by NWS Tampa Bay Area, FL

Home | Current Version | Previous Version | Text Only | Print | Product List | Glossary On
Versions: 1 2 3 4 5 6 7 8 9 10 11 12 13 14 15 16 17 18 19 20 21 22 23 24 25 26 27 28 29 30 31 32 33 34 35 36 37 38 39 40 41 42 43 44 45 46 47 48 49 50
000
NZUS99 KTBW 180919
RWRTPA
FLORIDA REGIONAL WEATHER ROUNDUP
NATIONAL WEATHER SERVICE TAMPA BAY RUSKIN FL
400 AM EST MON NOV 18 2019

NOTE: "FAIR" INDICATES FEW OR NO CLOUDS BELOW 12,000 FEET WITH NO
SIGNIFICANT WEATHER AND/OR OBSTRUCTIONS TO VISIBILITY.



STATION/POSITION



FLZ042-048>051-055-056-060-061-181000-
EXTRA STATIONS

CITY           SKY/WX    TMP DP  RH WIND       PRES   REMARKS
Everglades Cty NOT AVBL
CRYSTAL RIVER  CLOUDY    50  48  93 CALM      29.88F
SEBRING        CLOUDY    53  52  97 W7        29.88F
EGLIN AFB      FAIR      43  43  99 CALM      29.90F
CANAVERAL      CLOUDY    56  53  89 W12       29.83S

$$
FLZ001>010-012>015-181000-
PANHANDLE FLORIDA

CITY           SKY/WX    TMP DP  RH WIND       PRES   REMARKS
PENSACOLA      FAIR      47  45  93 N5        29.91F WCI  45
PENSACOLA NAS  FAIR      44  43  96 NW3       29.91F
MILTON NAS     FAIR      42  41  96 NW3       29.91F
CRESTVIEW      FAIR      41  39  93 CALM      29.92S
VALPARAISO     FAIR      49  44  84 NW6       29.89F WCI  46
MARY ESTHER    CLEAR     46  44  93 N7        29.89F WCI  42
PANAMA CITY    FAIR      49  46  90 NW7       29.89S WCI  46
TYNDALL AFB    FAIR      54  48  82 NW7       29.89S
APALACHICOLA   FAIR      53  48  83 N5        29.88F

STATION/POSITION


29.2N   88.2W
28.8N   86.0W
28.5N   84.5W

$$
FLZ011-016>039-181000-
NORTH FLORIDA

CITY           SKY/WX    TMP DP  RH WIND       PRES   REMARKS
TALLAHASSEE    MOCLDY    50  48  93 CALM      29.88S
PERRY          CLOUDY    54  53  97 CALM      29.89S
CROSS CITY       N/A     51  51  97 CALM      29.88F
GAINESVILLE    CLOUDY    50  48  93 CALM      29.90S
MAYPORT NAS    CLOUDY    50  50 100 W8        29.86R WCI  47
JACKSONVILLE   CLOUDY    50  48  93 W6        29.86S WCI  48
JAX NAS        CLOUDY    50  46  86 W8        29.87R WCI  47
JAX CRAIG      CLOUDY    51  50  96 W5        29.87R
ST AUGUSTINE   CLOUDY    53  50  89 W8        29.86R

STATION/POSITION


KEATON BEACH
31.4N   80.9W
ST AUGUSTINE

$$
FLZ040-043>046-052-053-057-058-063-181000-
CENTRAL FLORIDA

CITY           SKY/WX    TMP DP  RH WIND       PRES   REMARKS
OCALA          FAIR      48  48 100 S3        29.89S
LEESBURG       CLOUDY    54  49  83 W7        29.88R
SANFORD        CLOUDY    54  50  86 W10       29.86R
ORLANDO EXEC   CLOUDY    56  50  80 W7        29.87R
ORLANDO INTL   CLOUDY    56  50  80 W7        29.87R
KISSIMMEE        N/A     53  51  93 NW8       29.88S
WINTER HAVEN   CLOUDY    53  50  89 W6        29.89R
LAKELAND       FAIR      50  48  93 W5        29.89R WCI  48
BARTOW         CLOUDY    54  50  87 W5        29.88R

$$
FLZ041-047-054-059-064-181000-
EAST CENTRAL FLORIDA

CITY           SKY/WX    TMP DP  RH WIND       PRES   REMARKS
DAYTONA BEACH  CLOUDY    53  50  89 W9        29.85R
JFK SPACE CTR  CLOUDY    55  52  89 W8        29.84R
PATRICK AFB    CLOUDY    56  56 100 W13       29.83S
MELBOURNE      CLOUDY    54  52  93 W12       29.87S
VERO BEACH     CLOUDY    55  53  93 W12       29.85R
FT PIERCE      CLOUDY    55  51  86 W10       29.85S
STUART         CLOUDY    55  52  88 W7        29.86S

STATION/POSITION


28.9N   78.5W

$$
FLZ042-048>051-055-056-060-061-181000-
WEST CENTRAL FLORIDA

CITY           SKY/WX    TMP DP  RH WIND       PRES   REMARKS
BROOKSVILLE    CLOUDY    52  49  89 E3        29.89F
TAMPA          CLOUDY    56  50  80 CALM      29.89F
MACDILL AFB    CLOUDY    55  51  84 E7        29.87F
ST PETERSBURG  MOCLDY    56  51  84 CALM      29.88S
ST PET-WHITTED CLOUDY    59  52  77 E7        29.86F
SARASOTA       FAIR      55  51  86 E5        29.86F

STATION/POSITION


CEDAR KEY
28.5N   84.5W
VENICE

$$
FLZ062-065-066-069-070-075>078-181000-
SOUTHWEST FLORIDA AND KEYS

CITY           SKY/WX    TMP DP  RH WIND       PRES   REMARKS
PUNTA GORDA    CLOUDY    53  53 100 NW9       29.90S
FT MYERS       CLOUDY    56  52  86 N9        29.87F
SOUTHWEST INTL CLOUDY    55  52  89 N6        29.88F
NAPLES         CLOUDY    57  54  89 N5        29.88S
MARATHON       CLOUDY    64  58  80 N9        29.87R
KEY WEST NAS   CLOUDY    69  62  78 NE8       29.86R
KEY WEST INTL  CLOUDY    69  63  81 NE5       29.86S

STATION/POSITION


VENICE
26.0N   85.6W
SAND KEY
SOMBRERO KEY
LONG KEY

$$
FLZ067-068-071>074-181000-
SOUTHEAST FLORIDA

CITY           SKY/WX    TMP DP  RH WIND       PRES   REMARKS
W PALM BEACH   CLOUDY    58  55  90 W7        29.85S
POMPANO BEACH  CLOUDY    59  54  83 W7        29.85S
FT LAUDER-EXEC CLOUDY    57  54  89 NW6       29.85S
FT LAUDERDALE  CLOUDY    57  55  93 NW7       29.85S
PEMBROKE PINES CLOUDY    58  54  86 NW7       29.87S
OPA LOCKA      CLOUDY    58  55  90 W10       29.87S
MIAMI          CLOUDY    58  53  84 NW5       29.86S
WEST KENDALL   CLOUDY    59  56  89 NW7       29.86S
HOMESTEAD      CLOUDY    58  54  86 W6        29.84F

STATION/POSITION


LAKE WORTH
FOWEY ROCKS
SETTLEMENT POINT

$$



USA.gov is the U.S. government's official web portal to all federal, state and local government web resources and services.